Spokane Fairchild, WA
on Tuesday, February 5, 2013

Tuesday
Previous Day Next Day
Daily Summary
 ActualAverage (KGEG)Record (KGEG)
Temperature
Mean Temperature °F 32°F  
Max Temperature 37°F 37°F 53°F (1963)
Min Temperature 26°F 26°F -15°F (1883)
Degree Days
Heating Degree Days 34 33  
Month to date heating degree days 167  
Since 1 July heating degree days 4100  
Cooling Degree Days 0 0  
Month to date cooling degree days 0  
Year to date cooling degree days 0  
Moisture
Dew Point 31°F   
Average Humidity 95    
Maximum Humidity 100    
Minimum Humidity 81    
Precipitation
Precipitation 0.00 in 0.05 in 0.57 in (1996)
Month to date precipitation 0.23  
Year to date precipitation 2.02  
Snow
Snow 0.00 in 0.30 in 3.30 in (1946)
Month to date snowfall 1.5  
Since 1 July snowfall 35.0  
Snow Depth in   
Wind
Wind Speed 6 mph   
Max Wind Speed 15 mph   
Max Gust Speed mph   
Visibility 6 miles   
Events Fog , Rain   

Key: T is trace of precipitation, MM is missing value
Source: NWS Daily Summary
Time(PST)TemperatureDew PointHumidity Pressure Visibility Wind DirectionWind SpeedGust SpeedPrecipitationEvents Conditions
12:37 AM 32.0°F 32.0°F 100% 29.93 in 4.0 miles NE 2.3 mph - N/A   Scattered Clouds
12:58 AM 31.3°F 30.9°F 99% 29.99 in 5.0 miles NNE 5.8 mph - N/A   Partly Cloudy
1:11 AM 32.0°F 32.0°F 100% 29.92 in 2.5 miles NE 5.8 mph - N/A   Clear
1:16 AM 32.0°F 32.0°F 100% 29.92 in 3.0 miles NE 4.6 mph - N/A   Clear
1:23 AM 32.0°F 32.0°F 100% 29.92 in 3.0 miles ENE 3.5 mph - N/A   Clear
1:58 AM 30.7°F 30.6°F 99% 29.99 in 5.0 miles ENE 3.5 mph - 0.00 in   Partly Cloudy
2:13 AM 32.0°F 32.0°F 100% 29.91 in 5.0 miles East 3.5 mph - N/A   Scattered Clouds
2:26 AM 32.0°F 32.0°F 100% 29.91 in 4.0 miles East 3.5 mph - N/A   Mostly Cloudy
2:58 AM 30.7°F 30.6°F 99% 29.97 in 4.0 miles NE 3.5 mph - 0.00 in   Overcast
3:44 AM 32.0°F 32.0°F 100% 29.87 in 8.0 miles NE 8.1 mph - N/A   Overcast
3:58 AM 32.0°F 31.6°F 99% 29.94 in 10.0 miles ENE 6.9 mph - 0.00 in   Overcast
4:13 AM 32.0°F 32.0°F 100% 29.86 in 6.0 miles East 5.8 mph - N/A   Overcast
4:17 AM 32.0°F 32.0°F 100% 29.86 in 6.0 miles East 5.8 mph - N/A   Overcast
4:27 AM 32.0°F 32.0°F 100% 29.85 in 5.0 miles East 6.9 mph - N/A   Overcast
4:58 AM 30.4°F 30.2°F 99% 29.91 in 5.0 miles ENE 4.6 mph - 0.00 in   Mostly Cloudy
5:58 AM 29.3°F 29.1°F 99% 29.92 in 5.0 miles North 5.8 mph - N/A   Clear
6:03 AM 28.4°F 28.4°F 100% 29.83 in 0.8 miles NNE 5.8 mph - N/A   Clear
6:08 AM 30.2°F 28.4°F 93% 29.83 in 0.5 miles NNE 5.8 mph - N/A Fog Light Freezing Fog
6:13 AM 28.4°F 28.4°F 100% 29.83 in 0.2 miles NNE 5.8 mph - N/A Fog Light Freezing Fog
6:28 AM 28.4°F 28.4°F 100% 29.83 in 0.5 miles NNE 5.8 mph - N/A Fog Light Freezing Fog
6:33 AM 28.4°F 28.4°F 100% 29.83 in 0.5 miles NNE 5.8 mph - N/A Fog Light Freezing Fog
6:38 AM 28.4°F 28.4°F 100% 29.83 in 0.8 miles NNE 6.9 mph - N/A   Clear
6:48 AM 28.4°F 28.4°F 100% 29.83 in 1.0 miles NE 4.6 mph - N/A   Clear
6:58 AM 28.0°F 27.9°F 99% 29.90 in 0.5 miles NE 4.6 mph - N/A Fog Light Freezing Fog
7:03 AM 26.6°F 26.6°F 100% 29.83 in 0.2 miles NE 5.8 mph - N/A Fog Light Freezing Fog
7:08 AM 26.6°F 26.6°F 100% 29.82 in 0.2 miles NE 3.5 mph - N/A Fog Light Freezing Fog
7:10 AM 26.6°F 26.6°F 100% 29.82 in 0.2 miles ENE 2.3 mph - N/A Fog Light Freezing Fog
7:25 AM 26.6°F 26.6°F 100% 29.83 in 0.2 miles ENE 4.6 mph - N/A Fog Light Freezing Fog
7:26 AM 26.6°F 26.6°F 100% 29.82 in 0.2 miles East 5.8 mph - N/A Fog Light Freezing Fog
7:29 AM 26.6°F 24.8°F 93% 29.82 in 0.2 miles East 3.5 mph - N/A Fog , Rain Light Freezing Rain
7:36 AM 26.6°F 26.6°F 100% 29.83 in 0.2 miles ENE 3.5 mph - N/A Fog Light Freezing Fog
7:41 AM 26.6°F 26.6°F 100% 29.82 in 0.2 miles ENE 3.5 mph - N/A Fog Light Freezing Fog
7:46 AM 26.6°F 26.6°F 100% 29.83 in 0.2 miles East 5.8 mph - N/A Fog Light Freezing Fog
7:51 AM 26.6°F 26.6°F 100% 29.82 in 0.8 miles Variable 1.2 mph - N/A   Overcast
7:56 AM 28.4°F 26.6°F 93% 29.82 in 1.0 miles Variable 2.3 mph - N/A   Overcast
7:59 AM 27.7°F 27.3°F 99% 29.90 in 1.0 miles East 4.6 mph - N/A   Overcast
8:04 AM 28.4°F 28.4°F 100% 29.82 in 2.0 miles Variable 1.2 mph - N/A   Overcast
8:09 AM 28.4°F 28.4°F 100% 29.82 in 4.0 miles East 4.6 mph - N/A   Overcast
8:39 AM 28.4°F 28.4°F 100% 29.82 in 2.5 miles ENE 2.3 mph - N/A   Partly Cloudy
8:58 AM 29.7°F 29.5°F 99% 29.90 in 1.8 miles ENE 3.5 mph - 0.00 in   Clear
9:03 AM 30.2°F 30.2°F 100% 29.82 in 1.5 miles ENE 1.2 mph - N/A   Partly Cloudy
9:08 AM 32.0°F 30.2°F 93% 29.82 in 1.8 miles NE 1.2 mph - N/A   Scattered Clouds
9:13 AM 32.0°F 32.0°F 100% 29.82 in 2.0 miles Calm Calm - N/A   Mostly Cloudy
9:18 AM 32.0°F 32.0°F 100% 29.82 in 3.0 miles NE 1.2 mph - N/A   Mostly Cloudy
9:50 AM 33.8°F 32.0°F 93% 29.83 in 10.0 miles SSW 3.5 mph - N/A   Partly Cloudy
9:58 AM 34.9°F 33.8°F 96% 29.90 in 10.0 miles SSW 4.6 mph - 0.00 in   Mostly Cloudy
10:19 AM 35.6°F 33.8°F 93% 29.83 in 10.0 miles South 10.4 mph - N/A   Mostly Cloudy
10:58 AM 36.5°F 35.2°F 95% 29.88 in 10.0 miles South 6.9 mph - 0.00 in   Mostly Cloudy
11:20 AM 37.4°F 35.6°F 93% 29.81 in 10.0 miles South 10.4 mph - N/A   Overcast
11:43 AM 37.4°F 33.8°F 87% 29.81 in 10.0 miles South 10.4 mph - N/A   Overcast
11:58 AM 37.6°F 34.0°F 87% 29.87 in 10.0 miles SSW 6.9 mph - 0.00 in   Overcast
11:59 AM 37.4°F 33.8°F 87% 29.81 in 10.0 miles SSW 6.9 mph - N/A   Light Drizzle
12:04 PM 37.4°F 33.8°F 87% 29.81 in 10.0 miles SSW 8.1 mph - N/A   Overcast
12:06 PM 37.4°F 33.8°F 87% 29.81 in 10.0 miles SSW 10.4 mph - N/A   Light Drizzle
12:17 PM 37.4°F 33.8°F 87% 29.80 in 10.0 miles South 10.4 mph - N/A   Overcast
12:27 PM 37.4°F 33.8°F 87% 29.80 in 10.0 miles SSW 12.7 mph - N/A   Light Drizzle
12:37 PM 37.4°F 32.0°F 81% 29.80 in 10.0 miles SW 6.9 mph - N/A   Mostly Cloudy
12:53 PM 37.4°F 32.0°F 81% 29.81 in 10.0 miles SSW 11.5 mph - N/A   Light Drizzle
12:58 PM 37.9°F 33.6°F 84% 29.87 in 10.0 miles SW 10.4 mph - 0.00 in   Light Drizzle
1:17 PM 37.4°F 33.8°F 87% 29.81 in 10.0 miles SW 10.4 mph - N/A   Scattered Clouds
1:35 PM 37.4°F 33.8°F 87% 29.80 in 10.0 miles SW 11.5 mph - N/A Rain Light Rain
1:45 PM 37.4°F 33.8°F 87% 29.79 in 10.0 miles SSW 9.2 mph - N/A Rain Light Rain
1:55 PM 37.4°F 33.8°F 87% 29.81 in 10.0 miles SSW 15.0 mph - N/A Rain Light Rain
1:56 PM 37.4°F 33.8°F 87% 29.81 in 10.0 miles SSW 13.8 mph - N/A   Mostly Cloudy
1:58 PM 36.5°F 33.8°F 90% 29.87 in 10.0 miles SSW 15.0 mph - 0.00 in   Mostly Cloudy
2:18 PM 37.4°F 33.8°F 87% 29.79 in 10.0 miles SSW 10.4 mph - N/A Rain Light Rain
2:31 PM 37.4°F 33.8°F 87% 29.80 in 10.0 miles SSW 11.5 mph - N/A   Mostly Cloudy
2:39 PM 37.4°F 33.8°F 87% 29.80 in 10.0 miles SSW 12.7 mph - N/A Rain Light Rain
2:58 PM 37.0°F 34.5°F 91% 29.87 in 10.0 miles South 15.0 mph - 0.00 in Rain Light Rain
2:59 PM 37.4°F 33.8°F 87% 29.81 in 10.0 miles SSW 15.0 mph - N/A   Overcast
3:07 PM 37.4°F 33.8°F 87% 29.80 in 10.0 miles South 15.0 mph - N/A Rain Light Rain
3:21 PM 37.4°F 33.8°F 87% 29.80 in 10.0 miles South 12.7 mph - N/A   Overcast
3:54 PM 37.4°F 33.8°F 87% 29.80 in 10.0 miles South 12.7 mph - N/A   Scattered Clouds
3:58 PM 37.9°F 34.3°F 87% 29.86 in 10.0 miles South 12.7 mph - 0.00 in   Scattered Clouds
3:59 PM 37.4°F 33.8°F 87% 29.80 in 10.0 miles South 10.4 mph - N/A   Partly Cloudy
4:58 PM 36.9°F 34.7°F 92% 29.88 in 10.0 miles SSW 9.2 mph - 0.00 in   Mostly Cloudy
5:58 PM 36.7°F 34.9°F 93% 29.89 in 10.0 miles SSW 9.2 mph - N/A   Clear
6:37 PM 35.6°F 35.6°F 100% 29.82 in 10.0 miles South 9.2 mph - N/A   Partly Cloudy
6:47 PM 35.6°F 35.6°F 100% 29.83 in 10.0 miles South 10.4 mph - N/A   Partly Cloudy
6:58 PM 35.6°F 34.9°F 97% 29.90 in 10.0 miles South 10.4 mph - 0.00 in   Clear
7:58 PM 35.1°F 34.3°F 97% 29.90 in 10.0 miles South 9.2 mph - N/A   Clear
8:58 PM 34.3°F 33.4°F 97% 29.92 in 10.0 miles South 8.1 mph - N/A   Partly Cloudy
9:27 PM 33.8°F 32.0°F 93% 29.85 in 10.0 miles South 9.2 mph - N/A   Scattered Clouds
9:46 PM 32.0°F 32.0°F 100% 29.86 in 10.0 miles South 11.5 mph - N/A   Clear
9:58 PM 33.6°F 32.5°F 96% 29.93 in 10.0 miles South 11.5 mph - 0.00 in   Partly Cloudy
10:58 PM 32.5°F 31.5°F 96% 29.94 in 10.0 miles South 9.2 mph - N/A   Partly Cloudy
11:58 PM 32.5°F 31.3°F 95% 29.95 in 10.0 miles South 12.7 mph - N/A   Mostly Cloudy
Moon Phase
Feb. 05 Feb. 10 Feb. 17 Feb. 25 Mar. 04
Sunrise:07:11 AM (PST) Moon Rise:03:06 AM (PST)2/5
Sunset:04:58 PM (PST) Moon Set:12:12 PM (PST)2/5

Copyright © 2014 The Weather Underground, Inc.